Regional Weather Roundup
Issued by NWS

Home | Current Version | Previous Version | Text Only | Print | Product List | Glossary On
Versions: 1 2 3 4 5 6 7 8 9 10 11 12 13 14 15 16 17 18 19 20 21 22 23 24 25 26 27 28 29 30 31 32 33 34 35 36 37 38 39 40 41 42 43 44 45 46 47 48 49 50
000
ASMX46 KSGX 221203
RWRMX

MEXICAN WEATHER ROUNDUP
NATIONAL WEATHER SERVICE SAN DIEGO CA
500 AM PDT FRI AUG 22 2014

BAJA CALIFORNIA

CITY           SKY/WX    TMP DP  RH WIND       PRES   REMARKS
ENSENADA NW      N/A     69  32  25 W1        29.91S
MEXICALI       CLEAR     68  66  94 CALM      29.90
TIJUANA        CLOUDY    66  61  82 CALM      29.96F

NORTHWESTERN MEXICO

CITY           SKY/WX    TMP DP  RH WIND       PRES   REMARKS
CHIHUAHUA      CLOUDY    66  61  82 CALM      30.15
HERMOSILLO     MOCLDY    84  73  70 N3        29.94R

NORTHEASTERN MEXICO

CITY           SKY/WX    TMP DP  RH WIND       PRES   REMARKS
MONTERREY      PTCLDY    72  66  83 E6        30.02R
NUEVO LAREDO   CLEAR     81  70  69 SE12      29.98
REYNOSA        PTCLDY    73  70  88 SE6       30.02
SALTILLO       CLEAR     70  48  46 SE16      30.23R
TORREON        CLEAR     73  52  46 SE7       30.14R
VICTORIA       PTCLDY    73  68  83 S8        30.04

WESTERN MEXICO

CITY           SKY/WX    TMP DP  RH WIND       PRES   REMARKS
AGUASCALIENTES CLOUDY    59  50  72 NE12      30.31
COLIMA         PTCLDY    72  66  83 NW9       30.03S
DURANGO        PTCLDY    57  55  94 NW3       30.28S
GUADALAJARA    CLOUDY    64  59  82 CALM      30.19
MAZATLAN       MOCLDY    75  72  88 SE10      29.93R
PTO. VALLARTA  CLOUDY    75  72  88 NE3       29.93R
URUAPAN        CLOUDY    63  63 100 CALM      30.21
ZACATECAS      CLEAR     55  46  71 S6        30.34R

CENTRAL MEXICO

CITY           SKY/WX    TMP DP  RH WIND       PRES   REMARKS
CUERNAVACA     CLOUDY    64  50  59 CALM      30.17
LEON           MOCLDY    59  52  77 N5        30.32R
MEXICO CITY    MOCLDY    55  43  62 W8        30.36R
MORELIA        MOCLDY    59  59 100 CALM      30.27
POZA RICA      MOCLDY    77  75  94 N5        30.05  FOG
PUEBLA         MOCLDY    48  39  71 NW6       30.40R
QUERETARO      PTCLDY    54  45  71 NE6       30.36S
S. LUIS POTOSI PTCLDY    54  48  82 CALM      30.34R
TAMPICO        MOCLDY    79  75  89 CALM      30.02R
TOLUCA         MOCLDY    46  45  93 CALM      30.41R
VERACRUZ       MOCLDY    72  68  88 W5        29.99F

SOUTHERN MEXICO

CITY           SKY/WX    TMP DP  RH WIND       PRES   REMARKS
ACAPULCO       CLOUDY    79  73  83 N7        29.88R
B. DE HUATULCO PTCLDY    75  70  83 CALM      29.95
OAXACA         MOCLDY    61  57  88 N2        30.26R
PTO. ESCONDIDO PTCLDY    77  70  78 E18       30.02
TAPACHULA      MOCLDY    75  72  88 NE8       29.93R
ZIHUATANEJO    CLOUDY    77  73  88 CALM      29.89

YUCATAN PENINSULA

CITY           SKY/WX    TMP DP  RH WIND       PRES   REMARKS
CANCUN         MOCLDY    75  75 100 CALM      30.01R
CHETUMAL       MOCLDY    77  72  83 E12       29.96
COZUMEL        PTCLDY    73  73 100 E3        30.00R
MERIDA         MOCLDY    77  77 100 E6        29.99R

$$



USA.gov is the U.S. government's official web portal to all federal, state and local government web resources and services.